Loisir ou Compétition : Rejoignez un Club de la Fédération

Résultats

ETOILE DES SAISIES TROPHEE DU BEAUFORT ETAPE 10

LES SAISIES

FP Dames

Jury de Compétition

Délégué Technique :
JAUSSAUD SAMUEL (AP)
D.T. Adjoint :
 
Dir. Epreuve :
GARCIA RUDY (SA)

Caractéristiques de la Piste

Piste :
DOMAINE NORDIQUE OLYMPIQUE DES
Distance :
3 km
Point Haut :
 
Point Bas :
 
Montée Tot. :
 
Montée Max. :
 
Homologation :
2012-26-1

Pénalité Appliquée :
240.0000
Coefficient :
1400

Catégorie :
U14
Style :
L
Clt Dos Clt/Cat Code An Nom Prénom Com Club Temps Ecart Points
Classés
1 1484 1/U14 FFS2660732 2003 COUPAT Liv FZ BESSAT S HIV 08:30.2 00:00.0 240.00
2 1441 2/U14 FFS2665310 2002 MUNIER Elodie SA MONOLITHE SF 08:41.2 00:11.0 270.18
3 1487 3/U14 FFS2654839 2002 GREAU Alizee LY SC BRENOD 08:42.2 00:12.0 272.92
4 1448 4/U14 FFS2665311 2002 VIGNOL Manon SA MONOLITHE SF 08:48.2 00:18.0 289.39
5 1488 5/U14 FFS2654837 2002 CHARVOLIN Candice LY SC BRENOD 08:53.2 00:23.0 303.10
6 1489 6/U14 FFS2659929 2002 CERDAN Annouk LY US CORMARANC 08:56.2 00:26.0 311.33
7 1442 7/U14 FFS2655903 2002 BERTRAND Fany SA SC MERIBEL 09:04.2 00:34.0 333.28
8 1444 8/U14 FFS2666812 2002 TAFFIN Nina SA SC PEISEY VA 09:17.2 00:47.0 368.95
9 1482 9/U14 FFS2654873 2002 GROSSET Lina MB CS MEGEVE 09:21.2 00:51.0 379.93
10 1443 10/U14 FFS2644719 2002 RICHON Capucine SA CS LA FECLAZ 09:22.2 00:52.0 382.67
11 1485 11/U14 FFS2655708 2002 NIOGRET Agathe LY CS VALROMEY 09:26.2 00:56.0 393.64
12 1461 12/U14 FFS2670594 2003 CAVORET Lilou SA CS LA FECLAZ 09:42.2 01:12.0 437.54
13 1449 13/U14 FFS2669082 2002 ELOY Lilou SA COURCHEVEL 09:45.2 01:15.0 445.77
14 1486 14/U14 FFS2671450 2002 SYLVESTRE BARON Claire MB SCNP ROCHOIS 09:46.2 01:16.0 448.52
15 1471 15/U14 FFS2654963 2002 FANTIN Laura SA CN REVARD 09:47.2 01:17.0 451.26
16 1451 16/U14 FFS2663450 2002 GRISNAUX Ysaline SA SC MENUIRES 09:51.2 01:21.0 462.24
17 1355 17/U14 FFS2654373 2003 LAMBERT Talia SA SC MERIBEL 10:03.2 01:33.0 495.16
18 1454 18/U14 FFS2665861 2002 SERAFIN BEAUTE Amandine SA CS LA FECLAZ 10:11.2 01:41.0 517.11
19 1447 19/U14 FFS2665301 2002 RAMAZ Adelaide SA BAUGES S.N 10:13.2 01:43.0 522.60
20 1452 20/U14 FFS2670561 2002 MATHE Marcelline SA CS LA FECLAZ 10:18.2 01:48.0 536.31
21 1459 21/U14 FFS2670595 2003 COURTIEU Margot SA CS LA FECLAZ 10:24.2 01:54.0 552.78
22 1458 22/U14 FFS2668375 2002 DUNAND Juliane SA SC BOZEL 10:25.2 01:55.0 555.52
23 1490 23/U14 FFS2656103 2002 MOREL Emma AU PLOMB CANTAL 10:30.2 02:00.0 569.24
24 1468 24/U14 FFS2663983 2003 VOLLUET Emilie SA CS LA FECLAZ 10:33.2 02:03.0 577.47
25 1456 25/U14 FFS2665168 2003 RAOULT Zoe SA SC BOZEL 10:36.2 02:06.0 585.70
26 1463 26/U14 FFS2657793 2003 ZANELLATO Elodie SA CS VAL CENIS 10:40.2 02:10.0 596.67
27 1466 27/U14 FFS2653461 2003 VIAL Pascaline SA CS LA FECLAZ 10:46.2 02:16.0 613.14
28 1467 28/U14 FFS2676049 2003 MONARQUE Pauline SA CS LA FECLAZ 11:06.2 02:36.0 668.01
29 1453 29/U14 FFS2670449 2003 BROUTIER Amelie SA BAUGES S.N 11:11.2 02:41.0 681.73
30 1464 30/U14 FFS2664891 2002 BELLON Margaux SA SC BOZEL 11:19.2 02:49.0 703.68
31 1462 31/U14 FFS2670453 2003 LANCHAIS Manon SA CS LA FECLAZ 11:41.2 03:11.0 764.04
32 1455 32/U14 FFS2670608 2003 VALETTE Laure SA CS LA FECLAZ 11:46.2 03:16.0 777.75
33 1491 33/U14 TIC610990136 2002 SARRET Zelie 11:47.2 03:17.0 780.50
34 1473 34/U14 FFS2661796 2002 CONSTANT Elise SA SC ARECHES 11:50.2 03:20.0 788.73
35 1470 35/U14 FFS2665192 2003 POIROT Camille SA CN REVARD 12:03.2 03:33.0 824.40
36 1479 36/U14 FFS2650076 2002 BOURGEOIS Marie SA CS VAL CENIS 12:04.2 03:34.0 827.14
37 1469 37/U14 FFS2670448 2003 SUIFFET Justine SA BAUGES S.N 12:07.2 03:37.0 835.37
38 1480 38/U14 FFS2682650 2002 CLOCHEY Fiona MB LES GETS S.C 12:44.2 04:14.0 936.89
39 1472 39/U14 FFS2660784 2003 LAURENT Flavie SA CS KARELLIS 13:01.8 04:31.5 984.98
40 1478 40/U14 FFS2654760 2003 HUBERT Andrea SA CS SAISIES 13:37.2 05:06.9 1082.27
41 1474 41/U14 FFS2644369 2002 AUDINEAU Carla SA CS SAISIES 14:33.5 06:03.3 1236.82
42 1475 42/U14 FFS2677138 2003 DIAFERIA Lina SA SC PEISEY VA 14:58.2 06:27.9 1304.30
Non partants
1457 FFS2654445 2003 SOUVY Lou Anne SA SC BOZEL
1460 FFS2666104 2003 RADIC Juliet SA SC ARECHES
1476 FFS2670603 2003 RAT PATRON Camille SA CS LA FECLAZ
1477 FFS2665791 2003 SAUSSAC Montene SA CN REVARD